095  
NZUS93 KARX 260910  
HRRWXR  
 
CURRENT HOURLY OBSERVATIONS ACROSS  
MUCH OF THE UPPER MISSISSIPPI VALLEY  
NATIONAL WEATHER SERVICE LA CROSSE WI  
400 AM CDT SUN JUN 26 2016  
 
   
..SOUTHEAST MINNESOTA
 
 
 
CITY SKY/WX TMP DP RH WIND PRES REMARKS  
ROCHESTER PTCLDY 67 66 97 W8 29.93S  
ROCHESTER/MAYO FAIR 69 68 98 W9 29.92F  
WINONA PTCLDY 70 66 88 CALM 29.89S  
AUSTIN MOCLDY 68 64 88 W3 29.94S  
ALBERT LEA MOCLDY 66 64 94 CALM 29.95R  
DODGE CENTER CLOUDY 64 63 94 SW6 29.94R  
PRESTON CLOUDY 67 65 92 W7 29.93S  
OWATONNA CLOUDY 64 61 88 CALM 29.93S  
FARIBAULT CLOUDY 68 64 88 SW6 29.92R  

 
   
..ELSEWHERE IN MINNESOTA
 
 
 
CITY SKY/WX TMP DP RH WIND PRES REMARKS  
MINNEAPOLIS CLEAR 70 61 73 W8 29.89R  
INTNL FALLS CLEAR 55 51 86 SW5 29.68S  
DULUTH CLOUDY 62 57 83 SW10 29.78S  
RED WING CLEAR 64 63 94 CALM 29.88R  
REDWOOD FALLS CLOUDY 62 50 64 W8 29.94R  
MANKATO CLOUDY 66 57 72 W9 29.94R  
WORTHINGTON PTCLDY 62 59 90 SW8 30.01R  
FAIRMONT PTCLDY 64 59 82 W7 29.96R  

 
   
..SOUTHWEST WISCONSIN
 
 
 
CITY SKY/WX TMP DP RH WIND PRES REMARKS  
LA CROSSE CLOUDY 72 69 90 SW3 29.88R  
PRAIRIE DU CHI RAIN 72 70 95 S3 29.93R  
BOSCOBEL CLOUDY 73 71 93 S3 29.92R  
LONE ROCK LGT RAIN 72 70 93 NW5 29.90F  
PLATTEVILLE CLOUDY 73 73 99 NW9 29.93R  
FORT MC COY CLOUDY 69 68 99 CALM 29.90R  
CAMP DOUGLAS CLOUDY 71 69 95 W6 29.89R  
MAUSTON-NEW LI LGT RAIN 71 69 95 CALM 29.89R  
VIROQUA FAIR 69 69 100 W3 29.91R  
WIS DELLS RAIN 70 67 92 S3 29.92R  

 
   
..ELSEWHERE IN WISCONSIN
 
 
 
CITY SKY/WX TMP DP RH WIND PRES REMARKS  
MILWAUKEE CLOUDY 79 70 74 S8 29.90F  
MADISON TSTM 70 68 93 VRB3 29.91R FOG  
GREEN BAY CLOUDY 70 67 90 NE12G24 29.88F  
EAU CLAIRE CLEAR 67 65 93 CALM 29.87R  
BLACK RVR FLS FAIR 70 70 100 CALM 29.87S  
MEDFORD CLOUDY 69 69 100 W7 29.88R  
WAUSAU CLOUDY 69 68 96 SW6 29.86R  
WIS RAPIDS CLOUDY 70 67 90 SW3 29.89R  
MARSHFIELD CLOUDY 72 69 90 W7 29.88R  
RICE LAKE CLEAR 65 62 91 CALM 29.88S  

 
   
..NORTHEAST IOWA
 
 
 
CITY SKY/WX TMP DP RH WIND PRES REMARKS  
WATERLOO CLOUDY 73 71 93 SW8 29.94R  
DUBUQUE TSTM 72 70 93 SW16 29.96R  
DECORAH N/A 70 70 100 W5 29.92R  
MASON CITY CLOUDY 68 65 90 W5 29.98R  
CHARLES CITY CLOUDY 70 70 100 W6 29.95R  
OELWEIN CLOUDY 72 70 94 SW8 29.95R  

 
   
..ELSEWHERE IN IOWA
 
 
 
CITY SKY/WX TMP DP RH WIND PRES REMARKS  
DES MOINES TSTM 74 72 93 W9 30.00S  
IOWA CITY TSTM 74 71 91 W10G24 29.97R FOG  
FORT DODGE CLOUDY 70 61 73 NW3 30.01R  
MARSHALLTOWN RAIN 73 73 100 W8 29.98R FOG  
CEDAR RAPIDS TSTM 74 74 100 NW7G20 29.96R  

 
   
..NORTHERN ILLINOIS
 
 
 
CITY SKY/WX TMP DP RH WIND PRES REMARKS  
CHICAGO-OHARE PTCLDY 77 70 79 S14 29.95S  
CHICAGO-MIDWAY CLOUDY 78 69 73 S13 29.95F  
MOLINE CLOUDY 79 71 76 S10 29.91F  
ROCKFORD MOCLDY 76 71 85 S10 29.92F  
PEORIA CLEAR 74 70 87 S9 29.99R  

 
 
NOTE: "FAIR" INDICATES FEW OR NO CLOUDS BELOW 12,000 FEET WITH NO  
SIGNIFICANT WEATHER AND/OR OBSTRUCTIONS TO VISIBILITY. WIND  
SPEEDS ARE IN MILES-PER-HOUR.  
 
 
CLICK HERE TO GO TO PREVIOUS BULLETINS.

The Nexlab WI Page
The Nexlab IA Page
The Nexlab MN Page Main Text Page